Delta Virtual Airport Information Service

Atlanta Hartsfield-Jackson International Airport

ICAO: KATL Country: United States
Latitude: 33.6367 Longitude: -84.428
Latest Arrival : DALJUMP (KFLL-KATL) Latest Departure : DAC2211 (KATL-KCRW)


WX CaptureLIVE
Data provided by noaa.gov | Fetched at 01:48:46

METAR : KATL 300616Z 12007KT 6SM -RA BR SCT005 BKN013 OVC025 16/14 A2998 RMK AO2 LTG DSNT SW AND NW SCT005 V BKN CB DSNT ALQDS P0001 T01610144

TAF : KATL 300616Z 12007KT 6SM -RA BR SCT005 BKN013 OVC025 16/14 A2998 RMK AO2 LTG DSNT SW AND NW SCT005 V BKN CB DSNT ALQDS P0001 T01610144


Runway Data for KATL
Data provided by openaviationdata.com

Runway ID Mag Var Hdg Length Elevation Surface ILS Freq ILS Id ILS Slope
08L -3 93° 8990 ft 1026 ft Concrete 109.3 IHFW 3
08R -3 93° 9989 ft 1026 ft Concrete 109.9 IATL 3
09L -3 93° 11876 ft 1026 ft Concrete 110.5 IHZK 3
09R -3 93° 8990 ft 1026 ft Concrete 108.9 IFUN 3
26L -3 273° 9989 ft 1026 ft Concrete 108.7 IBRU 3
26R -3 273° 8990 ft 1026 ft Concrete 110.1 IGXZ 3
27L -3 273° 8990 ft 1026 ft Concrete 108.5 IFSQ 3
27R -3 273° 11876 ft 1026 ft Concrete 111.3 IAFA 3

Atlanta Hartsfield-Jackson International Airport, United States
Use only for reference purposes



Not for navigational purposes.